Deelen, Netherlands

5:09 PM CET on February 25, 2018 (GMT +0100)
Deelen Air Base

Weather History for EHDL - February, 2013

Change the Weather History Date:

Saturday, February 2, 2013

  Actual Average Record
Temperature  
Mean Temperature 37 °F -  
Max Temperature 41 °F 42 °F 54 °F (2017)
Min Temperature 33 °F 33 °F 14 °F (2012)
Degree Days  
Heating Degree Days 28    
Moisture  
Dew Point 34 °F    
Average Humidity 88    
Maximum Humidity 100    
Minimum Humidity 65    
Precipitation  
Precipitation 0.00 in - - ()
Sea Level Pressure  
Sea Level Pressure 29.69 in    
Wind  
Wind Speed 7 mph ()    
Max Wind Speed 20 mph    
Max Gust Speed 30 mph    
Visibility 5.7 miles    
Events Rain , Snow    
Averages and records for this station are not official NWS values.
T = Trace of Precipitation, MM = Missing Value Source: Averaged Metar Reports

Daily Weather History Graph

Daily Weather History Graph

Search for Another Location

Airport or City:

Trip Planner

Search our weather history database for the weather conditions in past years. The results will help you decide how hot, cold, wet, or windy it might be!

Date:

Astronomy

Feb. 02, 2013 Rise Set
Actual Time 8:14 AM CET 5:26 PM CET
Civil Twilight 7:38 AM CET 6:02 PM CET
Nautical Twilight 6:57 AM CET 6:43 PM CET
Astronomical Twilight 6:18 AM CET 7:22 PM CET
Moon 12:07 AM CET (2/2) 10:19 AM CET (2/2)
Length of Visible Light 10h 24m
Length of Day
9h 11m
Waning Gibbous, 62% of the Moon is Illuminated
Feb 2
Waning Gibbous
Feb 3
Last Quarter
Feb 10
New
Feb 17
First Quarter
Feb 25
Full

Hourly Weather History & Observations

Time (CET) Temp. Windchill Dew Point Humidity Pressure Visibility Wind Dir Wind Speed Gust Speed Precip Events Conditions
12:25 AM 35.6 °F - 35.6 °F 100% 29.39 in - WNW 1.2 mph - N/A   Overcast
12:55 AM 35.6 °F 32.8 °F 35.6 °F 100% 29.39 in - West 3.5 mph - N/A   Overcast
1:25 AM 35.6 °F 30.7 °F 35.6 °F 100% 29.42 in - West 5.8 mph - N/A   Mostly Cloudy
1:55 AM 35.6 °F 29.9 °F 35.6 °F 100% 29.42 in - West 6.9 mph - N/A   Overcast
2:25 AM 35.6 °F 31.7 °F 35.6 °F 100% 29.42 in - West 4.6 mph - N/A   Overcast
2:55 AM 35.6 °F 31.7 °F 35.6 °F 100% 29.42 in - West 4.6 mph - N/A   Overcast
3:25 AM 35.6 °F 32.8 °F 35.6 °F 100% 29.42 in 3.1 mi WSW 3.5 mph - N/A   Overcast
3:55 AM 35.6 °F 31.7 °F 35.6 °F 100% 29.42 in 3.7 mi West 4.6 mph - N/A   Overcast
4:25 AM 35.6 °F 32.8 °F 35.6 °F 100% 29.44 in 5.0 mi West 3.5 mph - N/A   Overcast
4:55 AM 35.6 °F 31.7 °F 35.6 °F 100% 29.44 in 4.3 mi West 4.6 mph - N/A   Overcast
5:25 AM 37.4 °F 33.8 °F 37.4 °F 100% 29.44 in 4.3 mi West 4.6 mph - N/A   Overcast
5:55 AM 37.4 °F 32.1 °F 37.4 °F 100% 29.44 in 5.6 mi West 6.9 mph - N/A Rain Light Rain
6:25 AM 37.4 °F 33.8 °F 37.4 °F 100% 29.47 in 6.2 mi WNW 4.6 mph - N/A   Mostly Cloudy
6:55 AM 37.4 °F 34.9 °F 37.4 °F 100% 29.47 in 6.2 mi West 3.5 mph - N/A   Mostly Cloudy
7:25 AM 37.4 °F 32.8 °F 37.4 °F 100% 29.50 in 5.0 mi NW 5.8 mph - N/A   Mostly Cloudy
7:55 AM 37.4 °F 28.9 °F 37.4 °F 100% 29.53 in 3.7 mi NNW 13.8 mph - N/A Rain Light Rain Showers
8:25 AM 35.6 °F 24.8 °F 33.8 °F 93% 29.56 in 6.2 mi North 19.6 mph - N/A Rain Light Rain
8:55 AM 33.8 °F 26.4 °F 32.0 °F 93% 29.59 in 1.1 mi NNW 9.2 mph - N/A Snow Light Snow
9:25 AM 33.8 °F 27.7 °F 32.0 °F 93% 29.62 in 6.2 mi NW 6.9 mph - N/A Snow Light Snow
9:55 AM 33.8 °F 27.7 °F 32.0 °F 93% 29.65 in 6.2 mi NW 6.9 mph - N/A   Mostly Cloudy
10:25 AM 33.8 °F 27.0 °F 33.8 °F 100% 29.65 in 6.2 mi NW 8.1 mph - N/A   Overcast
10:55 AM 35.6 °F 29.2 °F 33.8 °F 93% 29.68 in 6.2 mi NNW 8.1 mph - N/A   Mostly Cloudy
11:25 AM 37.4 °F 28.9 °F 35.6 °F 93% 29.71 in 6.2 mi NNW 13.8 mph - N/A   Unknown
11:55 AM 39.2 °F 30.8 °F 33.8 °F 81% 29.71 in 6.2 mi NNW 15.0 mph - N/A   Scattered Clouds
12:25 PM 39.2 °F 30.5 °F 32.0 °F 75% 29.74 in 6.2 mi North 16.1 mph - N/A   Partly Cloudy
12:55 PM 41.0 °F 32.8 °F 30.2 °F 65% 29.74 in 6.2 mi NNW 16.1 mph - N/A   Scattered Clouds
1:25 PM 41.0 °F 32.5 °F 30.2 °F 65% 29.77 in 6.2 mi NNW 17.3 mph - N/A   Mostly Cloudy
1:55 PM 41.0 °F 33.1 °F 30.2 °F 65% 29.77 in 6.2 mi NNW 15.0 mph - N/A   Mostly Cloudy
2:25 PM 41.0 °F 32.8 °F 30.2 °F 65% 29.80 in 6.2 mi NNW 16.1 mph - N/A   Partly Cloudy
2:55 PM 41.0 °F 32.2 °F 30.2 °F 65% 29.80 in 6.2 mi NNW 18.4 mph 29.9 mph N/A   Scattered Clouds
3:25 PM 41.0 °F 32.8 °F 30.2 °F 65% 29.80 in 6.2 mi NW 16.1 mph - N/A   Mostly Cloudy
3:55 PM 39.2 °F 31.2 °F 30.2 °F 70% 29.83 in 6.2 mi NNW 13.8 mph - N/A   Unknown
4:25 PM 39.2 °F 30.5 °F 32.0 °F 75% 29.83 in 6.2 mi NW 16.1 mph - N/A   Scattered Clouds
4:55 PM 39.2 °F 30.8 °F 32.0 °F 75% 29.86 in 6.2 mi NNW 15.0 mph - N/A   Mostly Cloudy
5:25 PM 37.4 °F 30.3 °F 32.0 °F 81% 29.86 in 6.2 mi NW 10.4 mph - N/A   Mostly Cloudy
5:55 PM 37.4 °F 30.3 °F 32.0 °F 81% 29.89 in 6.2 mi NW 10.4 mph - N/A   Unknown
6:25 PM 37.4 °F 30.3 °F 32.0 °F 81% 29.89 in 6.2 mi NW 10.4 mph - N/A   Partly Cloudy
6:55 PM 37.4 °F 30.3 °F 32.0 °F 81% 29.89 in 6.2 mi NW 10.4 mph - N/A   Overcast
7:25 PM 37.4 °F 30.8 °F 32.0 °F 81% 29.92 in 6.2 mi NW 9.2 mph - N/A   Overcast
7:55 PM 37.4 °F 30.3 °F 32.0 °F 81% 29.92 in 6.2 mi WNW 10.4 mph - N/A   Mostly Cloudy
8:25 PM 39.2 °F 32.5 °F 33.8 °F 81% 29.92 in 6.2 mi NW 10.4 mph - N/A   Overcast
8:55 PM 39.2 °F 32.0 °F 33.8 °F 81% 29.95 in 6.2 mi NW 11.5 mph - N/A   Overcast
9:25 PM 39.2 °F 33.0 °F 35.6 °F 87% 29.95 in 6.2 mi NW 9.2 mph - N/A   Mostly Cloudy
9:55 PM 39.2 °F 32.5 °F 35.6 °F 87% 29.95 in 6.2 mi NW 10.4 mph - N/A   Overcast
10:25 PM 39.2 °F 32.5 °F 35.6 °F 87% 29.95 in 6.2 mi NW 10.4 mph - N/A   Overcast
10:55 PM 37.4 °F 32.1 °F 33.8 °F 87% 29.98 in 6.2 mi NW 6.9 mph - N/A   Mostly Cloudy
11:25 PM 35.6 °F 29.9 °F 33.8 °F 93% 29.98 in 6.2 mi WNW 6.9 mph - N/A   Unknown
11:55 PM 35.6 °F 29.9 °F 33.8 °F 93% 29.98 in 6.2 mi WNW 6.9 mph - N/A   Partly Cloudy